Theta_e
283 284 285 284 285 286 284 286 282 285 284 286 289 289 292 293 293 293 293 293 293 292 292 291 290 290 290 289 289 289 289 288 287 286 287 287 286 285 285 285 284 284 284 284
279 284 285 283 285 286 287 286 286 283 283 288 290 291 292 293 293 293 294 294 294 293 291 290 290 289 289 288 288 288 287 286 286 285 284 284 284 284 284 283 283 283 283 283
274 280 281 281 284 285 285 287 286 283 289 288 287 289 292 293 294 294 295 294 293 293 292 291 290 290 288 287 286 285 285 284 284 283 283 283 283 283 282 282 282 282 282 282
271 273 272 283 286 289 287 287 289 286 287 289 290 291 292 293 293 293 293 293 293 293 291 290 289 288 287 285 284 283 283 283 283 283 282 282 282 281 281 281 281 281 280 280
276 267 278 281 284 284 284 286 289 289 289 289 289 288 290 290 293 295 294 294 294 293 291 289 289 287 285 284 283 283 282 282 281 281 280 280 279 280 280 279 279 279 281 279
274 270 271 278 284 286 289 281 285 289 289 288 289 284 289 290 291 292 293 292 291 290 289 288 286 285 284 283 282 282 281 281 280 279 277 277 278 277 278 278 280 280 279 277
271 270 276 283 285 287 281 281 284 287 288 287 286 288 287 287 286 286 287 287 287 288 287 286 285 284 283 281 281 280 279 278 277 277 276 276 275 276 276 278 277 276 275 274
274 271 276 285 285 284 286 284 284 287 287 287 286 286 285 284 284 284 284 284 284 284 283 283 284 283 281 280 278 276 276 275 273 272 276 275 273 275 274 273 270 268 268 272
283 281 285 283 285 286 287 286 285 286 286 287 285 285 284 283 282 282 281 281 280 281 280 278 279 281 279 276 275 274 272 270 270 274 274 275 274 272 271 269 268 270 271 270
284 284 284 285 285 286 286 286 285 286 286 286 286 284 284 282 282 280 279 279 277 279 279 277 276 276 276 275 274 271 273 273 274 273 272 272 274 274 270 267 267 269 270 273
280 283 284 285 286 287 285 284 284 284 284 285 284 283 283 281 279 280 279 277 277 279 279 275 274 272 272 272 273 273 272 272 272 271 271 271 272 271 271 271 270 266 266 273
280 286 286 286 287 286 285 284 284 284 282 283 284 283 281 279 279 278 277 275 275 274 274 272 271 270 269 270 271 272 271 270 270 269 269 269 268 267 272 274 276 277 278 275
284 285 284 284 285 284 284 283 282 282 283 282 281 281 278 278 275 275 274 274 275 274 272 270 267 266 264 266 267 268 268 266 265 265 265 262 261 260 260 265 273 275 276 276
282 283 282 282 282 283 283 282 279 277 277 278 276 273 273 272 270 272 273 273 270 270 268 267 265 265 263 259 260 260 262 263 263 261 260 258 258 258 257 258 258 260 269 273
282 282 282 281 279 277 275 274 274 275 273 273 270 273 272 272 272 272 269 268 267 266 264 265 267 265 259 259 259 259 260 259 258 257 256 258 257 256 256 254 254 254 255 265
277 273 273 275 274 273 272 271 273 273 270 269 269 270 271 269 267 266 265 265 268 268 265 264 265 263 259 257 258 258 256 259 258 257 255 255 255 256 254 253 254 252 253 254
274 275 272 272 273 272 274 272 274 273 270 270 273 267 266 263 261 264 264 264 261 262 264 264 264 260 259 259 259 260 259 257 258 254 254 254 253 255 254 252 252 252 254 254
275 276 275 274 274 274 272 271 271 269 269 269 266 265 265 266 272 271 269 261 257 258 262 265 263 260 259 259 260 259 258 257 255 257 255 254 252 252 252 252 252 252 252 252
268 269 269 271 268 269 268 268 266 267 266 267 265 268 268 269 269 265 262 262 260 261 266 261 265 260 259 259 258 258 258 256 255 252 253 253 252 250 251 251 251 250 250 251
263 262 263 263 263 262 263 260 261 263 262 262 262 262 266 268 267 262 261 264 266 265 259 259 262 258 258 258 263 258 257 257 256 254 252 251 252 251 250 252 251 251 249 249
256 257 258 258 258 256 255 253 254 258 258 258 259 264 266 262 260 260 257 263 266 256 256 258 260 259 259 259 260 257 254 255 255 255 253 254 251 251 251 250 250 251 251 249
250 251 253 253 252 252 250 249 247 250 253 255 255 254 256 257 253 255 259 263 254 257 257 258 259 258 258 260 257 256 253 254 253 252 251 250 250 252 252 252 252 253 253 252
247 247 247 247 248 249 249 246 246 245 249 250 251 252 253 255 255 255 261 255 253 255 254 255 257 258 259 257 256 254 253 253 253 253 254 254 255 256 256 257 256 256 253 254
245 246 245 244 243 247 250 249 245 245 244 245 245 246 249 252 253 250 251 253 255 259 254 255 260 263 259 256 256 255 256 257 257 258 258 259 258 257 256 256 256 256 255 254
243 243 242 244 246 248 245 245 245 245 245 245 246 248 248 249 253 251 249 251 258 254 254 260 264 264 258 258 259 259 259 259 259 258 258 258 257 257 256 255 254 254 254 254
244 246 244 243 246 247 246 244 247 246 245 247 246 246 247 249 250 251 252 255 255 257 257 259 260 262 260 259 259 259 259 259 259 258 258 257 256 256 255 254 254 253 253 253
243 246 244 246 245 245 245 246 246 248 246 245 247 247 248 249 252 254 255 256 257 257 257 258 259 259 258 258 258 258 257 257 258 257 257 256 255 254 254 254 253 253 253 253
Wind_Speed
3 3 3 6 13 15 11 17 11 12 10 9 7 7 6 7 7 8 8 9 10 10 8 8 7 6 6 5 5 5 8 8 7 6 7 6 8 7 6 6 5 5 6 6
3 5 1 0 6 13 22 11 17 4 7 6 5 6 7 8 9 11 11 12 12 11 11 11 11 9 8 7 6 6 8 8 6 7 6 6 7 6 6 6 6 6 6 6
6 2 3 6 14 15 11 15 10 14 18 6 3 7 9 10 13 14 12 14 14 14 13 12 11 10 10 8 7 7 8 6 7 6 6 6 6 6 6 6 5 6 6 5
4 3 5 9 4 16 18 9 17 3 4 11 9 9 8 9 13 13 11 10 12 13 12 11 9 8 9 8 8 8 7 7 6 6 6 5 6 6 5 4 5 3 2 2
7 5 6 4 6 8 10 16 11 18 8 7 5 2 7 6 8 11 9 8 10 9 11 10 12 11 11 9 8 9 8 7 5 5 5 5 5 5 4 3 2 2 2 4
3 7 12 1 5 4 7 13 7 11 11 10 7 5 8 2 3 3 6 8 12 12 12 13 11 12 13 11 9 8 7 6 5 5 5 5 5 4 2 2 2 1 3 2
3 5 9 8 2 1 9 8 2 2 5 8 7 4 1 2 4 3 3 7 9 11 12 12 13 13 12 10 8 6 6 6 5 4 5 4 4 2 2 3 4 5 3 4
3 2 14 7 4 10 5 2 3 3 3 5 5 4 3 4 4 5 7 6 6 9 9 9 11 12 11 10 7 6 6 5 5 3 3 3 4 3 3 4 4 3 3 2
11 8 4 5 1 1 2 5 3 5 3 6 6 5 6 5 5 4 6 6 4 9 10 5 6 9 12 8 8 7 7 6 4 5 3 3 4 4 3 4 3 1 2 2
4 4 4 5 1 2 3 4 4 4 4 6 5 6 5 5 5 5 5 7 5 11 11 9 6 6 8 10 9 8 8 6 5 5 4 3 3 3 3 2 1 1 1 1
2 3 1 4 4 6 5 5 4 3 3 3 3 3 5 5 5 6 6 3 4 7 9 7 6 7 6 7 7 7 6 5 5 4 4 3 3 2 1 2 3 2 3 1
5 6 3 2 7 5 6 5 6 5 2 1 5 7 6 5 5 5 7 6 6 6 7 7 7 7 6 5 6 9 8 5 4 4 3 2 2 1 3 4 2 2 2 2
4 4 3 5 6 4 4 3 2 5 4 5 4 5 4 5 3 4 5 7 8 10 8 9 8 7 5 3 4 5 6 6 4 4 4 3 2 3 2 4 3 4 4 5
4 6 4 1 3 4 4 4 3 2 0 2 3 2 3 4 3 6 8 6 5 7 7 8 8 7 7 5 5 5 5 6 5 4 4 3 3 3 3 2 0 3 4 5
4 5 4 5 4 3 3 3 2 3 2 2 0 4 5 7 7 8 6 6 6 6 6 6 7 7 6 6 6 6 5 4 4 3 3 3 3 3 3 2 3 3 3 4
4 5 4 1 1 1 2 1 3 5 3 2 3 6 5 3 3 4 5 7 10 12 10 9 9 6 8 6 6 4 3 6 5 4 3 3 3 3 3 3 3 3 3 4
5 3 1 4 6 5 8 4 5 4 1 5 9 1 4 4 4 6 8 8 4 4 7 9 8 8 9 8 9 5 5 4 6 3 3 4 3 4 3 3 3 3 4 4
3 5 5 2 1 2 3 5 4 4 5 4 4 6 6 7 10 9 7 5 3 1 6 9 8 10 10 9 8 6 5 5 4 5 4 4 3 3 3 3 3 3 3 3
6 6 5 6 5 2 2 3 2 4 4 3 5 7 7 7 6 5 8 8 7 7 11 8 10 10 9 8 7 5 6 6 5 4 4 4 3 3 3 3 3 4 3 3
6 6 6 4 6 6 5 4 6 6 4 2 2 2 6 8 7 7 7 12 14 7 6 11 11 9 9 10 12 6 6 6 6 4 3 3 3 3 3 4 4 3 3 4
7 7 7 7 6 4 5 5 7 7 8 6 3 5 7 4 4 5 4 7 8 7 6 11 11 8 7 9 7 7 5 5 5 5 4 4 3 3 4 4 4 4 4 3
4 5 6 7 6 6 5 5 3 5 5 6 5 4 5 5 3 4 5 8 2 7 5 6 7 9 8 12 6 6 5 5 4 4 4 4 4 4 4 4 4 4 4 4
3 2 3 4 4 5 7 4 5 3 6 5 6 6 3 3 2 2 7 3 3 6 4 4 7 10 11 6 6 5 4 5 4 4 4 5 5 5 5 5 5 4 4 5
3 4 4 4 3 3 5 4 4 4 2 4 4 4 3 3 4 3 3 3 3 7 4 7 9 11 8 4 4 4 4 5 5 5 4 6 4 4 4 5 5 5 5 6
2 3 3 4 3 2 4 4 5 3 4 4 4 4 4 2 3 3 1 1 4 4 2 7 9 11 6 6 5 5 5 5 4 4 5 5 5 5 5 5 5 6 5 6
3 2 3 3 4 4 3 2 2 3 2 3 3 3 3 2 1 1 1 4 4 3 1 2 2 4 4 4 4 4 4 4 4 5 5 5 5 5 5 6 6 6 6 7
3 3 3 4 2 2 2 2 2 4 3 3 4 3 2 2 1 2 3 2 2 3 2 1 0 1 2 3 3 3 3 3 5 5 5 5 5 6 6 6 6 6 6 7
Wind_Direction
48 356 116 167 183 185 197 214 193 236 210 231 235 216 190 177 163 162 178 177 178 176 169 158 153 150 141 126 124 121 105 101 100 95 94 98 91 88 85 79 85 89 85 68
11 346 70 321 198 187 220 217 240 350 250 211 186 134 177 180 176 189 195 194 187 176 169 170 166 162 152 146 135 121 117 115 108 96 101 99 99 102 95 84 69 66 57 54
234 334 69 305 205 209 216 217 210 221 238 159 192 197 194 193 198 205 200 194 188 184 177 174 170 161 155 140 121 115 117 111 107 112 109 102 102 91 76 66 65 61 54 50
163 44 200 262 176 205 207 212 213 210 142 185 196 208 208 207 194 209 201 186 186 182 175 166 147 133 121 121 123 125 119 111 114 120 111 108 98 91 81 75 72 72 55 55
145 200 293 245 212 152 175 246 209 223 199 200 190 108 270 202 209 216 205 194 186 172 155 144 147 139 132 129 132 133 131 130 136 131 119 109 101 97 81 76 63 45 6 16
128 161 218 218 192 145 109 266 224 203 190 186 137 202 234 28 26 209 174 162 157 151 145 144 145 140 140 147 145 142 144 136 119 114 116 110 109 107 102 101 80 47 26 8
168 223 284 250 222 143 151 244 132 145 156 153 185 207 108 39 30 43 71 115 119 142 151 146 142 143 144 144 152 133 120 119 120 120 120 120 123 100 108 96 76 48 25 338
110 107 252 171 74 168 206 51 137 99 89 123 119 128 106 90 98 94 102 100 106 119 123 134 144 143 143 147 127 118 112 104 92 75 72 85 88 77 75 75 77 44 34 359
181 205 213 201 178 92 119 134 158 112 110 133 146 189 170 155 150 138 128 118 98 128 123 109 118 143 145 142 133 124 115 119 122 116 103 101 132 115 101 84 89 52 37 9
94 202 204 163 118 138 112 114 139 119 150 168 171 174 171 157 160 152 149 152 142 141 149 149 136 116 129 141 138 137 140 139 136 122 125 108 92 89 92 99 103 89 52 339
295 305 75 198 198 168 146 131 129 102 139 193 158 188 180 181 180 176 163 130 150 157 152 140 124 113 121 127 140 142 135 136 136 136 144 133 117 128 136 209 167 174 223 253
216 185 157 173 176 171 173 190 186 163 170 188 183 199 184 201 185 169 163 150 149 142 139 146 133 131 127 138 154 149 149 155 154 148 137 116 110 72 9 37 21 67 46 44
161 133 90 105 101 135 161 184 174 198 219 198 218 190 166 187 179 155 157 171 179 173 154 143 139 130 127 138 152 163 144 149 146 136 141 147 134 137 123 335 19 28 9 352
112 113 67 46 115 137 108 94 113 98 105 215 178 122 136 153 121 179 192 179 142 138 143 148 149 166 166 150 146 139 131 141 151 157 158 164 163 166 149 132 189 306 320 331
159 57 103 115 74 70 59 73 50 270 278 285 234 192 176 182 194 193 159 153 133 141 153 151 164 171 153 153 160 158 155 158 161 164 171 168 168 158 161 151 187 235 321 328
97 54 37 118 159 154 118 78 198 255 224 247 226 226 204 157 137 149 162 153 158 195 184 183 191 161 159 161 161 157 170 168 164 168 173 173 168 165 165 177 205 222 231 238
92 322 308 283 221 206 214 207 207 226 142 207 237 162 145 129 117 182 197 195 190 161 175 183 188 158 168 177 176 177 176 177 170 158 178 194 178 189 188 173 206 221 234 240
41 51 55 145 166 220 269 243 230 239 228 227 174 152 159 183 212 212 205 139 106 236 204 195 168 165 175 180 181 174 177 176 171 191 183 186 203 193 182 194 209 216 250 275
48 70 45 57 20 5 335 340 340 296 286 210 160 208 208 211 205 180 142 161 188 219 234 183 178 168 180 185 179 170 183 179 180 192 186 184 193 198 192 203 218 228 238 256
45 35 31 21 29 32 349 8 338 342 338 300 261 221 226 227 196 171 169 206 210 210 141 162 180 179 181 184 181 190 182 183 190 189 169 182 195 208 212 213 221 235 242 247
25 13 25 20 8 19 34 0 349 343 329 344 282 254 254 293 192 148 176 228 220 178 162 164 178 180 179 179 181 180 173 179 188 181 182 195 204 217 223 229 231 227 241 240
0 3 355 356 360 331 344 339 349 323 326 333 329 321 306 276 249 240 234 232 1 162 161 178 188 170 169 172 173 171 175 181 184 169 185 193 203 216 226 227 235 236 236 239
327 320 314 348 333 308 312 347 332 331 334 337 332 319 281 284 227 216 272 234 166 172 154 150 165 168 165 161 169 166 175 184 190 196 204 206 214 218 228 236 237 240 239 245
341 350 321 304 307 346 354 309 317 319 284 299 299 289 284 319 309 245 281 248 205 191 160 151 169 166 142 132 149 170 191 203 209 213 220 229 230 231 230 240 248 245 245 253
266 284 294 338 346 318 295 290 310 331 348 333 330 327 325 284 211 277 220 196 178 115 113 167 169 159 142 159 179 197 209 212 214 215 224 232 236 231 238 238 243 255 256 251
337 317 282 264 255 282 285 319 301 297 323 317 298 306 319 335 22 46 59 95 87 100 90 125 158 149 159 174 191 201 207 214 216 227 233 239 239 240 241 245 246 245 246 246
318 307 331 322 299 293 293 256 283 289 261 223 250 272 292 330 28 81 81 74 94 96 90 53 76 161 166 199 204 212 220 231 237 242 239 244 245 248 250 252 253 250 247 246